[Date Prev][Date Next][Thread Prev][Thread Next] - [Date Index][Thread Index][Author Index]
2 Line ISS Keps 10-13
- Subject: [sarex] 2 Line ISS Keps 10-13
- From: "Dave Larsen PhD" <doc@xxxxxxxxxxx>
- Date: Thu, 12 Oct 2006 19:30:04 -0700
ISS
1 25544U 98067A 06285.98420664 .00007505 00000-0 49352-4 0 8498
2 25544 051.6353 300.5949 0013135 090.2623 352.0864 15.76844687451745
----
Sent via sarex@amsat.org. Opinions expressed are those of the author.
Not an AMSAT member? Join now to support the amateur satellite program!
Subscription settings: http://amsat.org/mailman/listinfo/sarex
AMSAT Home